FW1177 Weather Reports


time (UTC)temp
F
wind
direction
speed
knots
gust
knots
rain 1hr
in
rain 24hr
in
rain mn
in
humidity
%
barometer
mb
20260510033445 71 130 1.7 6.1 0.00 0.16 0.09 89 1039.1
20260510032431 71 135 0.0 0.0 0.00 0.16 0.09 89 1038.9
20260510031432 71 207 1.7 3.5 0.00 0.16 0.09 88 1038.8
20260510030530 71 195 0.9 2.6 0.00 0.16 0.09 89 1038.8
20260510024532 72 137 0.0 2.6 0.00 0.16 0.09 89 1038.7
20260510023629 72 275 0.0 2.6 0.00 0.16 0.09 89 1038.6
20260510021631 73 240 0.9 1.7 0.00 0.16 0.09 89 1038.2
20260510020630 73 186 0.0 0.9 0.00 0.16 0.09 89 1038.0
20260510015631 74 211 0.9 3.5 0.00 0.16 0.09 87 1037.7
20260510014631 74 247 0.0 0.0 0.00 0.16 0.09 87 1037.5
20260510014531 74 247 0.0 0.0 0.00 0.16 0.09 87 1037.5
20260510013629 75 247 0.0 0.0 0.00 0.16 0.09 86 1037.3
20260510012648 75 247 0.0 0.0 0.00 0.16 0.09 84 1037.2
20260510011731 75 247 0.0 0.0 0.00 0.16 0.09 84 1037.2
20260510011631 75 247 0.0 0.0 0.00 0.16 0.09 83 1037.2
20260510010630 76 247 0.0 0.0 0.00 0.16 0.09 83 1037.2
20260510010531 76 247 0.0 0.0 0.00 0.16 0.09 83 1037.3
20260510005630 76 225 0.0 0.0 0.00 0.16 0.09 81 1037.1
20260510004631 77 225 0.0 0.0 0.00 0.16 0.09 82 1037.1
20260510003631 77 225 0.0 0.0 0.00 0.16 0.09 80 1036.9
20260510002645 78 225 0.0 0.0 0.00 0.16 0.09 80 1036.9
20260510002531 78 225 0.0 0.0 0.00 0.16 0.09 80 1036.8
20260510001531 78 225 0.0 0.0 0.00 0.16 0.09 80 1036.6
20260510000545 78 157 0.0 0.9 0.00 0.16 0.09 79 1036.4
20260509235530 78 202 0.9 1.7 0.00 0.16 0.09 78 1036.3
20260509234629 79 201 0.0 0.9 0.00 0.16 0.09 78 1036.2
20260509233631 79 180 0.9 0.9 0.00 0.16 0.09 77 1036.0
20260509232730 79 180 0.0 0.0 0.00 0.16 0.09 75 1035.9
20260509231729 79 112 0.0 0.0 0.00 0.16 0.09 75 1036.1
20260509230731 80 135 0.9 3.5 0.00 0.16 0.09 75 1036.1
20260509225730 80 157 0.0 0.0 0.00 0.16 0.09 76 1036.1
20260509224732 80 157 0.0 0.9 0.00 0.16 0.09 76 1035.9
20260509223731 80 157 0.0 0.0 0.00 0.16 0.09 75 1036.0
20260509222829 80 164 0.0 0.9 0.00 0.16 0.09 75 1035.9
20260509221829 80 157 0.0 1.7 0.00 0.16 0.09 74 1035.9
20260509220829 80 180 0.0 0.9 0.00 0.16 0.09 76 1035.9
20260509215831 80 202 0.0 0.0 0.00 0.16 0.09 76 1035.8
20260509214830 80 244 0.0 1.7 0.00 0.16 0.09 77 1035.9
20260509214731 80 247 0.0 0.0 0.00 0.16 0.09 77 1035.9
20260509213828 79 180 0.0 0.9 0.00 0.16 0.09 77 1036.0
20260509212829 78 180 0.0 0.0 0.00 0.16 0.09 77 1036.4
20260509212747 78 180 0.0 0.0 0.00 0.16 0.09 77 1036.3
20260509205730 78 202 0.0 0.0 0.01 0.16 0.09 81 1036.6
20260509204730 78 360 0.0 0.0 0.01 0.16 0.09 81 1036.6
20260509203829 78 135 0.0 0.0 0.01 0.16 0.09 80 1036.7
20260509202831 78 135 0.0 0.0 0.01 0.16 0.09 79 1036.9
20260509201929 78 180 0.0 0.0 0.01 0.16 0.09 80 1037.0
20260509200945 78 61 0.0 2.6 0.01 0.16 0.09 80 1037.0
20260509193930 77 81 0.9 2.6 0.00 0.15 0.08 86 1037.5
20260509191930 75 157 0.0 0.0 0.00 0.15 0.08 87 1037.7
20260509191029 75 315 0.0 0.0 0.00 0.15 0.08 88 1038.0
20260509190030 75 315 0.0 0.0 0.00 0.15 0.08 86 1038.2
20260509185930 75 315 0.0 0.0 0.00 0.15 0.08 87 1038.1
20260509185029 75 341 0.0 0.9 0.00 0.15 0.08 86 1038.0
20260509182030 75 135 0.0 0.0 0.00 0.15 0.08 88 1038.2
20260509181129 75 90 0.0 0.0 0.00 0.15 0.08 88 1038.2
20260509181029 74 90 0.0 0.0 0.00 0.15 0.08 88 1038.1
20260509180045 74 47 1.7 1.7 0.00 0.15 0.08 89 1038.2
20260509175129 74 112 0.0 0.0 0.00 0.15 0.08 90 1038.4
20260509172130 74 112 0.0 0.0 0.00 0.15 0.08 90 1038.4
20260509171129 74 112 0.0 0.0 0.00 0.15 0.08 89 1038.5
20260509170228 74 112 0.0 0.0 0.00 0.15 0.08 90 1038.5
20260509170129 74 112 0.0 0.0 0.00 0.15 0.08 91 1038.5
20260509170031 74 112 0.0 0.0 0.00 0.15 0.08 91 1038.4
20260509165030 74 360 0.0 0.0 0.00 0.15 0.08 91 1038.4
20260509164029 73 342 0.9 0.9 0.00 0.15 0.08 90 1038.4
20260509163128 73 112 0.0 0.0 0.00 0.15 0.08 91 1038.4
20260509163031 73 112 0.0 0.0 0.00 0.15 0.08 90 1038.4
20260509162048 73 71 0.0 2.6 0.00 0.15 0.08 93 1038.3
20260509160029 72 22 0.0 0.0 0.00 0.15 0.08 92 1038.2
20260509155048 72 22 0.9 1.7 0.00 0.15 0.08 94 1038.2
20260509154030 72 292 0.0 0.0 0.00 0.15 0.08 94 1038.2
20260509153031 71 360 0.0 0.9 0.00 0.15 0.08 95 1038.2
20260509152031 71 135 0.0 0.9 0.00 0.15 0.08 94 1038.2
20260509151046 70 135 0.9 1.7 0.00 0.15 0.08 96 1038.2
20260509150930 70 135 0.0 0.0 0.00 0.15 0.08 96 1038.2
20260509145929 70 135 0.0 0.0 0.00 0.15 0.08 95 1038.4
20260509144931 70 135 0.0 0.9 0.00 0.15 0.08 95 1038.5
20260509144829 70 135 0.0 0.0 0.00 0.15 0.08 96 1038.5
20260509142829 69 90 0.0 0.0 0.00 0.15 0.08 96 1038.6
20260509141749 69 90 0.0 0.0 0.00 0.15 0.08 97 1038.5
20260509135847 69 180 0.0 0.0 0.00 0.15 0.08 97 1038.7
20260509135746 69 180 0.0 0.0 0.00 0.15 0.08 97 1038.7
20260509134829 68 180 0.0 0.0 0.00 0.15 0.08 97 1038.8
20260509133848 68 180 0.0 0.0 0.00 0.15 0.08 98 1038.8
20260509131931 67 180 0.0 0.0 0.00 0.15 0.08 98 1038.4
20260509130930 67 180 0.0 0.0 0.00 0.15 0.08 98 1038.4
20260509130847 67 180 0.0 0.0 0.00 0.15 0.08 98 1038.4
20260509130748 67 180 0.0 0.0 0.00 0.15 0.08 97 1038.3
20260509125829 66 180 0.0 0.0 0.00 0.15 0.08 98 1038.2
20260509125730 66 180 0.0 0.0 0.00 0.15 0.08 98 1038.2
20260509123829 66 180 0.0 0.0 0.00 0.15 0.08 97 1038.2
20260509122847 65 180 0.0 0.0 0.00 0.15 0.08 97 1038.5
20260509121830 65 180 0.0 0.0 0.00 0.15 0.08 97 1038.5
20260509121747 65 180 0.0 0.0 0.00 0.15 0.08 98 1038.5
20260509120629 65 180 0.0 0.0 0.00 0.15 0.08 98 1038.5
20260509114630 65 180 0.0 0.0 0.00 0.15 0.08 98 1038.2
20260509113630 65 251 0.0 0.0 0.00 0.15 0.08 97 1038.0
20260509113529 65 270 0.0 0.0 0.00 0.15 0.08 98 1038.0
20260509112628 65 270 0.0 0.0 0.00 0.15 0.08 98 1037.7
20260509112529 65 270 0.0 0.0 0.00 0.15 0.08 98 1037.6
20260509111531 65 270 0.0 0.0 0.00 0.15 0.08 98 1037.4
20260509105630 65 45 0.0 0.0 0.00 0.16 0.08 98 1037.3
20260509104729 64 45 0.0 0.0 0.00 0.19 0.08 98 1037.3
20260509102728 65 45 0.0 0.0 0.04 0.19 0.08 98 1037.2
20260509101731 65 45 0.0 0.0 0.04 0.19 0.08 98 1037.3
20260509100647 65 45 0.0 0.0 0.04 0.19 0.08 98 1037.1
20260509095728 65 45 0.0 0.0 0.04 0.19 0.08 98 1037.1
20260509094730 65 45 0.0 0.0 0.04 0.19 0.08 98 1037.1
20260509093729 65 45 0.0 0.9 0.04 0.19 0.08 98 1037.6
20260509092729 65 45 0.0 0.0 0.00 0.15 0.04 97 1037.6
20260509091828 65 45 0.0 0.0 0.00 0.15 0.04 98 1037.6
20260509090847 65 45 0.0 0.0 0.00 0.15 0.04 98 1037.7
20260509085928 65 45 0.0 0.0 0.00 0.15 0.04 98 1037.5
20260509085829 65 45 0.0 0.0 0.00 0.15 0.04 97 1037.3
20260509083946 64 45 0.0 0.0 0.00 0.15 0.04 97 1037.6
20260509083029 65 45 0.0 0.0 0.00 0.15 0.04 97 1037.3
20260509082931 65 45 0.0 0.0 0.00 0.15 0.04 97 1037.4
20260509082028 64 45 0.0 0.0 0.00 0.15 0.04 96 1037.3
20260509081031 64 45 0.0 0.0 0.00 0.15 0.04 97 1037.5
20260509074047 65 45 0.0 0.0 0.01 0.15 0.04 97 1037.5
20260509073031 65 45 0.9 1.7 0.01 0.15 0.04 97 1037.2
20260509072128 65 45 0.0 0.0 0.01 0.15 0.04 97 1037.0
20260509072044 65 45 0.0 0.0 0.01 0.15 0.04 97 1036.9
20260509071130 66 45 0.0 0.0 0.01 0.15 0.04 97 1036.6
20260509065247 65 39 1.7 2.6 0.02 0.15 0.04 97 1036.6
20260509065130 65 7 1.7 2.6 0.02 0.15 0.04 97 1036.8
20260509064129 65 240 0.9 1.7 0.02 0.14 0.03 97 1036.8
20260509062131 65 292 1.7 2.6 0.03 0.14 0.03 96 1038.0
20260509061130 65 202 0.0 0.0 0.03 0.14 0.03 96 1038.5
20260509060130 65 135 0.9 1.7 0.02 0.13 0.02 95 1039.3
20260509055228 65 135 0.0 0.0 0.03 0.13 0.02 94 1039.4
20260509054228 65 22 0.0 0.0 0.02 0.12 0.01 95 1039.6
20260509054146 65 22 0.0 0.0 0.02 0.12 0.01 95 1039.6
20260509053131 65 315 0.0 0.0 0.02 0.11 0.00 94 1040.1
20260509053031 65 315 0.0 0.0 0.02 0.11 0.00 94 1040.0
20260509052029 65 22 0.0 0.0 0.02 0.11 0.00 93 1039.4
20260509051928 65 22 0.0 0.0 0.02 0.11 0.00 94 1039.5
20260509050930 65 22 0.0 0.9 0.07 0.11 0.00 94 1039.8
20260509050829 65 22 0.0 0.9 0.07 0.11 0.00 94 1039.8
20260509050731 65 20 1.7 4.3 0.07 0.11 0.00 94 1039.7
20260509045743 65 315 0.9 0.9 0.07 0.11 0.11 92 1039.1
20260509044745 65 273 1.7 2.6 0.06 0.10 0.10 91 1038.0
20260509043746 66 270 0.0 0.9 0.06 0.10 0.09 88 1038.5
20260509042843 66 40 0.9 1.7 0.05 0.09 0.09 85 1038.5
20260509042744 67 22 0.0 0.0 0.05 0.09 0.09 84 1038.7
20260509041744 69 2 0.9 1.7 0.05 0.09 0.09 77 1038.2
20260509041701 69 89 0.0 0.0 0.05 0.09 0.08 76 1038.3
20260509035700 69 202 1.7 2.6 0.00 0.04 0.04 74 1037.1